Year,Month,Day,Hour,Minute,Value (Times are PST for temperature in C)
2013,08,15,00,00,18.40
2013,08,15,00,01,18.40
2013,08,15,00,02,18.40
2013,08,15,00,03,18.40
2013,08,15,00,04,18.40
2013,08,15,00,05,18.40
2013,08,15,00,06,18.30
2013,08,15,00,07,18.30
2013,08,15,00,08,18.30
2013,08,15,00,09,18.30
2013,08,15,00,10,18.30
2013,08,15,00,11,18.30
2013,08,15,00,12,18.30
2013,08,15,00,13,18.30
2013,08,15,00,14,18.30
2013,08,15,00,15,18.20
2013,08,15,00,16,18.20
2013,08,15,00,17,18.20
2013,08,15,00,18,18.20
2013,08,15,00,19,18.20
2013,08,15,00,20,18.20
2013,08,15,00,21,18.20
2013,08,15,00,22,18.20
2013,08,15,00,23,18.20
2013,08,15,00,24,18.20
2013,08,15,00,25,18.20
2013,08,15,00,26,18.20
2013,08,15,00,27,18.20
2013,08,15,00,28,18.20
2013,08,15,00,29,18.20
2013,08,15,00,30,18.20
2013,08,15,00,31,18.10
2013,08,15,00,32,18.10
2013,08,15,00,33,18.10
2013,08,15,00,34,18.10
2013,08,15,00,35,18.10
2013,08,15,00,36,18.10
2013,08,15,00,37,18.10
2013,08,15,00,38,18.10
2013,08,15,00,39,18.10
2013,08,15,00,40,18.10
2013,08,15,00,41,18.10
2013,08,15,00,42,18.10
2013,08,15,00,43,18.10
2013,08,15,00,44,18.10
2013,08,15,00,45,18.10
2013,08,15,00,46,18.10
2013,08,15,00,47,18.10
2013,08,15,00,48,18.10
2013,08,15,00,49,18.10
2013,08,15,00,50,18.10
2013,08,15,00,51,18.10
2013,08,15,00,52,18.10
2013,08,15,00,53,18.10
2013,08,15,00,54,18.10
2013,08,15,00,55,18.10
2013,08,15,00,56,18.10
2013,08,15,00,57,18.10
2013,08,15,00,58,18.10
2013,08,15,00,59,18.10
2013,08,15,01,00,18.10
2013,08,15,01,01,18.10
2013,08,15,01,02,18.10
2013,08,15,01,03,18.10
2013,08,15,01,04,18.10
2013,08,15,01,05,18.10
2013,08,15,01,06,18.10
2013,08,15,01,07,18.10
2013,08,15,01,08,18.10
2013,08,15,01,09,18.10
2013,08,15,01,10,18.10
2013,08,15,01,11,18.00
2013,08,15,01,12,18.00
2013,08,15,01,13,18.00
2013,08,15,01,14,18.00
2013,08,15,01,15,18.00
2013,08,15,01,16,18.00
2013,08,15,01,17,18.00
2013,08,15,01,18,18.00
2013,08,15,01,19,17.90
2013,08,15,01,20,17.90
2013,08,15,01,21,17.90
2013,08,15,01,22,17.90
2013,08,15,01,23,17.90
2013,08,15,01,24,17.90
2013,08,15,01,25,17.90
2013,08,15,01,26,17.90
2013,08,15,01,27,17.90
2013,08,15,01,28,17.90
2013,08,15,01,29,17.90
2013,08,15,01,30,17.90
2013,08,15,01,31,17.90
2013,08,15,01,32,17.90
2013,08,15,01,33,17.90
2013,08,15,01,34,17.90
2013,08,15,01,35,17.90
2013,08,15,01,36,17.90
2013,08,15,01,37,17.90
2013,08,15,01,38,17.90
2013,08,15,01,39,17.90
2013,08,15,01,40,17.90
2013,08,15,01,41,17.90
2013,08,15,01,42,17.90
2013,08,15,01,43,17.90
2013,08,15,01,44,17.90
2013,08,15,01,45,17.90
2013,08,15,01,49,17.80
2013,08,15,01,50,17.80
2013,08,15,01,51,17.80
2013,08,15,01,52,17.80
2013,08,15,01,53,17.80
2013,08,15,01,54,17.80
2013,08,15,01,55,17.80
2013,08,15,01,56,17.80
2013,08,15,01,57,17.80
2013,08,15,01,58,17.70
2013,08,15,01,59,17.70
2013,08,15,02,00,17.70
2013,08,15,02,01,17.70
2013,08,15,02,02,17.70
2013,08,15,02,03,17.70
2013,08,15,02,04,17.70
2013,08,15,02,05,17.70
2013,08,15,02,06,17.70
2013,08,15,02,07,17.70
2013,08,15,02,08,17.70
2013,08,15,02,09,17.60
2013,08,15,02,10,17.60
2013,08,15,02,11,17.60
2013,08,15,02,12,17.60
2013,08,15,02,13,17.60
2013,08,15,02,14,17.60
2013,08,15,02,15,17.60
2013,08,15,02,16,17.60
2013,08,15,02,17,17.60
2013,08,15,02,18,17.50
2013,08,15,02,19,17.50
2013,08,15,02,20,17.50
2013,08,15,02,21,17.50
2013,08,15,02,22,17.50
2013,08,15,02,23,17.50
2013,08,15,02,24,17.40
2013,08,15,02,25,17.40
2013,08,15,02,26,17.40
2013,08,15,02,27,17.40
2013,08,15,02,28,17.40
2013,08,15,02,29,17.40
2013,08,15,02,30,17.40
2013,08,15,02,31,17.40
2013,08,15,02,32,17.30
2013,08,15,02,33,17.30
2013,08,15,02,34,17.30
2013,08,15,02,35,17.30
2013,08,15,02,36,17.30
2013,08,15,02,37,17.30
2013,08,15,02,38,17.30
2013,08,15,02,39,17.30
2013,08,15,02,40,17.30
2013,08,15,02,41,17.30
2013,08,15,02,42,17.30
2013,08,15,02,43,17.30
2013,08,15,02,44,17.30
2013,08,15,02,45,17.30
2013,08,15,02,46,17.30
2013,08,15,02,47,17.30
2013,08,15,02,48,17.30
2013,08,15,02,49,17.30
2013,08,15,02,50,17.30
2013,08,15,02,51,17.30
2013,08,15,02,52,17.30
2013,08,15,02,53,17.30
2013,08,15,02,54,17.30
2013,08,15,02,55,17.30
2013,08,15,02,56,17.30
2013,08,15,02,57,17.30
2013,08,15,02,58,17.30
2013,08,15,02,59,17.30
2013,08,15,03,00,17.30
2013,08,15,03,01,17.30
2013,08,15,03,02,17.30
2013,08,15,03,03,17.30
2013,08,15,03,04,17.30
2013,08,15,03,05,17.30
2013,08,15,03,06,17.30
2013,08,15,03,07,17.30
2013,08,15,03,08,17.30
2013,08,15,03,09,17.30
2013,08,15,03,10,17.30
2013,08,15,03,11,17.40
2013,08,15,03,12,17.40
2013,08,15,03,13,17.40
2013,08,15,03,14,17.40
2013,08,15,03,15,17.40
2013,08,15,03,16,17.40
2013,08,15,03,17,17.40
2013,08,15,03,18,17.40
2013,08,15,03,19,17.40
2013,08,15,03,20,17.40
2013,08,15,03,21,17.40
2013,08,15,03,22,17.40
2013,08,15,03,23,17.40
2013,08,15,03,24,17.40
2013,08,15,03,25,17.40
2013,08,15,03,26,17.40
2013,08,15,03,27,17.40
2013,08,15,03,28,17.50
2013,08,15,03,29,17.50
2013,08,15,03,30,17.50
2013,08,15,03,31,17.50
2013,08,15,03,32,17.50
2013,08,15,03,33,17.40
2013,08,15,03,34,17.40
2013,08,15,03,35,17.40
2013,08,15,03,36,17.40
2013,08,15,03,37,17.40
2013,08,15,03,38,17.40
2013,08,15,03,39,17.40
2013,08,15,03,40,17.40
2013,08,15,03,41,17.30
2013,08,15,03,42,17.30
2013,08,15,03,43,17.30
2013,08,15,03,44,17.30
2013,08,15,03,45,17.30
2013,08,15,03,46,17.30
2013,08,15,03,47,17.30
2013,08,15,03,48,17.30
2013,08,15,03,49,17.30
2013,08,15,03,50,17.30
2013,08,15,03,51,17.30
2013,08,15,03,52,17.30
2013,08,15,03,53,17.30
2013,08,15,03,54,17.30
2013,08,15,03,55,17.20
2013,08,15,03,56,17.30
2013,08,15,03,57,17.20
2013,08,15,03,58,17.20
2013,08,15,03,59,17.20
2013,08,15,04,00,17.20
2013,08,15,04,01,17.20
2013,08,15,04,02,17.20
2013,08,15,04,03,17.20
2013,08,15,04,04,17.20
2013,08,15,04,05,17.20
2013,08,15,04,06,17.20
2013,08,15,04,07,17.20
2013,08,15,04,08,17.20
2013,08,15,04,09,17.10
2013,08,15,04,10,17.10
2013,08,15,04,11,17.10
2013,08,15,04,12,17.10
2013,08,15,04,13,17.10
2013,08,15,04,14,17.00
2013,08,15,04,15,17.00
2013,08,15,04,16,17.00
2013,08,15,04,17,16.90
2013,08,15,04,18,16.90
2013,08,15,04,19,16.90
2013,08,15,04,20,16.90
2013,08,15,04,21,16.90
2013,08,15,04,22,16.80
2013,08,15,04,23,16.80
2013,08,15,04,24,16.80
2013,08,15,04,25,16.80
2013,08,15,04,26,16.80
2013,08,15,04,27,16.70
2013,08,15,04,28,16.70
2013,08,15,04,29,16.70
2013,08,15,04,30,16.70
2013,08,15,04,31,16.70
2013,08,15,04,32,16.70
2013,08,15,04,33,16.70
2013,08,15,04,34,16.60
2013,08,15,04,35,16.60
2013,08,15,04,36,16.60
2013,08,15,04,37,16.60
2013,08,15,04,38,16.50
2013,08,15,04,39,16.50
2013,08,15,04,40,16.50
2013,08,15,04,41,16.40
2013,08,15,04,42,16.40
2013,08,15,04,43,16.40
2013,08,15,04,44,16.40
2013,08,15,04,45,16.30
2013,08,15,04,46,16.30
2013,08,15,04,47,16.30
2013,08,15,04,48,16.30
2013,08,15,04,49,16.30
2013,08,15,04,50,16.20
2013,08,15,04,51,16.20
2013,08,15,04,52,16.20
2013,08,15,04,53,16.20
2013,08,15,04,54,16.20
2013,08,15,04,55,16.10
2013,08,15,04,56,16.10
2013,08,15,04,57,16.10
2013,08,15,04,58,16.10
2013,08,15,04,59,16.10
2013,08,15,05,00,16.10
2013,08,15,05,01,16.00
2013,08,15,05,02,16.00
2013,08,15,05,03,16.00
2013,08,15,05,04,16.00
2013,08,15,05,05,15.90
2013,08,15,05,06,15.90
2013,08,15,05,07,15.90
2013,08,15,05,08,15.90
2013,08,15,05,09,15.90
2013,08,15,05,10,15.80
2013,08,15,05,11,15.80
2013,08,15,05,12,15.80
2013,08,15,05,13,15.80
2013,08,15,05,14,15.80
2013,08,15,05,15,15.80
2013,08,15,05,16,15.70
2013,08,15,05,17,15.70
2013,08,15,05,18,15.70
2013,08,15,05,19,15.70
2013,08,15,05,20,15.70
2013,08,15,05,21,15.60
2013,08,15,05,22,15.60
2013,08,15,05,23,15.60
2013,08,15,05,24,15.60
2013,08,15,05,25,15.60
2013,08,15,05,26,15.60
2013,08,15,05,27,15.60
2013,08,15,05,28,15.60
2013,08,15,05,29,15.60
2013,08,15,05,30,15.50
2013,08,15,05,31,15.50
2013,08,15,05,32,15.50
2013,08,15,05,33,15.50
2013,08,15,05,34,15.40
2013,08,15,05,35,15.40
2013,08,15,05,36,15.40
2013,08,15,05,37,15.40
2013,08,15,05,38,15.40
2013,08,15,05,39,15.40
2013,08,15,05,40,15.40
2013,08,15,05,41,15.40
2013,08,15,05,42,15.30
2013,08,15,05,43,15.30
2013,08,15,05,44,15.30
2013,08,15,05,45,15.30
2013,08,15,05,46,15.30
2013,08,15,05,47,15.30
2013,08,15,05,48,15.30
2013,08,15,05,49,15.30
2013,08,15,05,50,15.30
2013,08,15,05,51,15.30
2013,08,15,05,52,15.20
2013,08,15,05,53,15.20
2013,08,15,05,54,15.20
2013,08,15,05,55,15.20
2013,08,15,05,56,15.20
2013,08,15,05,57,15.20
2013,08,15,05,58,15.20
2013,08,15,05,59,15.10
2013,08,15,06,00,15.10
2013,08,15,06,01,15.10
2013,08,15,06,02,15.10
2013,08,15,06,03,15.00
2013,08,15,06,04,15.00
2013,08,15,06,05,15.00
2013,08,15,06,06,15.00
2013,08,15,06,07,15.00
2013,08,15,06,08,15.00
2013,08,15,06,09,15.00
2013,08,15,06,10,15.00
2013,08,15,06,11,15.00
2013,08,15,06,12,15.00
2013,08,15,06,13,15.00
2013,08,15,06,14,15.00
2013,08,15,06,15,15.00
2013,08,15,06,16,15.00
2013,08,15,06,17,15.00
2013,08,15,06,18,15.00
2013,08,15,06,19,15.00
2013,08,15,06,20,15.00
2013,08,15,06,21,15.00
2013,08,15,06,22,15.00
2013,08,15,06,23,15.00
2013,08,15,06,24,15.00
2013,08,15,06,25,15.00
2013,08,15,06,26,15.00
2013,08,15,06,27,15.00
2013,08,15,06,28,15.00
2013,08,15,06,29,15.00
2013,08,15,06,30,15.00
2013,08,15,06,31,15.00
2013,08,15,06,32,15.00
2013,08,15,06,33,15.00
2013,08,15,06,34,15.00
2013,08,15,06,35,15.00
2013,08,15,06,36,15.00
2013,08,15,06,37,15.00
2013,08,15,06,38,14.90
2013,08,15,06,39,14.90
2013,08,15,06,40,14.90
2013,08,15,06,41,14.90
2013,08,15,06,42,14.90
2013,08,15,06,43,14.90
2013,08,15,06,44,14.90
2013,08,15,06,45,14.90
2013,08,15,06,46,14.90
2013,08,15,06,47,14.90
2013,08,15,06,48,14.80
2013,08,15,06,49,14.80
2013,08,15,06,50,14.80
2013,08,15,06,51,14.80
2013,08,15,06,52,14.80
2013,08,15,06,53,14.80
2013,08,15,06,54,14.80
2013,08,15,06,55,14.80
2013,08,15,06,56,14.80
2013,08,15,06,57,14.80
2013,08,15,06,58,14.80
2013,08,15,06,59,14.80
2013,08,15,07,00,14.80
2013,08,15,07,01,14.80
2013,08,15,07,02,14.90
2013,08,15,07,03,14.90
2013,08,15,07,04,14.90
2013,08,15,07,05,14.90
2013,08,15,07,06,14.90
2013,08,15,07,07,14.80
2013,08,15,07,08,14.80
2013,08,15,07,09,14.80
2013,08,15,07,10,14.80
2013,08,15,07,11,14.80
2013,08,15,07,12,14.80
2013,08,15,07,13,14.80
2013,08,15,07,14,14.80
2013,08,15,07,15,14.80
2013,08,15,07,16,14.80
2013,08,15,07,17,14.80
2013,08,15,07,18,14.80
2013,08,15,07,19,14.90
2013,08,15,07,20,14.90
2013,08,15,07,21,14.90
2013,08,15,07,22,14.90
2013,08,15,07,23,14.90
2013,08,15,07,24,14.90
2013,08,15,07,25,15.00
2013,08,15,07,26,15.00
2013,08,15,07,27,15.00
2013,08,15,07,28,15.00
2013,08,15,07,29,15.00
2013,08,15,07,30,15.00
2013,08,15,07,31,15.00
2013,08,15,07,32,15.00
2013,08,15,07,33,15.00
2013,08,15,07,34,15.00
2013,08,15,07,35,15.00
2013,08,15,07,36,15.00
2013,08,15,07,37,15.00
2013,08,15,07,38,15.00
2013,08,15,07,39,15.00
2013,08,15,07,40,15.10
2013,08,15,07,41,15.10
2013,08,15,07,42,15.20
2013,08,15,07,43,15.20
2013,08,15,07,44,15.20
2013,08,15,07,45,15.20
2013,08,15,07,46,15.30
2013,08,15,07,47,15.30
2013,08,15,07,48,15.30
2013,08,15,07,49,15.40
2013,08,15,07,50,15.40
2013,08,15,07,51,15.40
2013,08,15,07,52,15.40
2013,08,15,07,53,15.50
2013,08,15,07,54,15.50
2013,08,15,07,55,15.50
2013,08,15,07,56,15.60
2013,08,15,07,57,15.60
2013,08,15,07,58,15.60
2013,08,15,07,59,15.70
2013,08,15,08,00,15.70
2013,08,15,08,01,15.70
2013,08,15,08,02,15.70
2013,08,15,08,03,15.80
2013,08,15,08,04,15.80
2013,08,15,08,05,15.80
2013,08,15,08,06,15.80
2013,08,15,08,07,15.80
2013,08,15,08,08,15.90
2013,08,15,08,09,15.90
2013,08,15,08,10,15.90
2013,08,15,08,11,15.90
2013,08,15,08,12,15.90
2013,08,15,08,13,15.90
2013,08,15,08,14,16.00
2013,08,15,08,15,16.00
2013,08,15,08,16,16.00
2013,08,15,08,17,16.00
2013,08,15,08,18,16.10
2013,08,15,08,19,16.10
2013,08,15,08,20,16.10
2013,08,15,08,21,16.20
2013,08,15,08,22,16.20
2013,08,15,08,23,16.20
2013,08,15,08,24,16.20
2013,08,15,08,25,16.30
2013,08,15,08,26,16.30
2013,08,15,08,27,16.30
2013,08,15,08,28,16.30
2013,08,15,08,29,16.30
2013,08,15,08,30,16.40
2013,08,15,08,31,16.40
2013,08,15,08,32,16.40
2013,08,15,08,33,16.50
2013,08,15,08,34,16.50
2013,08,15,08,35,16.60
2013,08,15,08,36,16.60
2013,08,15,08,37,16.60
2013,08,15,08,38,16.70
2013,08,15,08,39,16.70
2013,08,15,08,40,16.80
2013,08,15,08,41,16.80
2013,08,15,08,42,16.80
2013,08,15,08,43,16.90
2013,08,15,08,44,16.90
2013,08,15,08,45,16.90
2013,08,15,08,46,17.00
2013,08,15,08,47,17.00
2013,08,15,08,48,17.00
2013,08,15,08,49,17.10
2013,08,15,08,50,17.10
2013,08,15,08,51,17.10
2013,08,15,08,52,17.20
2013,08,15,08,53,17.20
2013,08,15,08,54,17.20
2013,08,15,08,55,17.30
2013,08,15,08,56,17.30
2013,08,15,08,57,17.30
2013,08,15,08,58,17.40
2013,08,15,08,59,17.40
2013,08,15,09,00,17.40
2013,08,15,09,01,17.50
2013,08,15,09,02,17.50
2013,08,15,09,03,17.50
2013,08,15,09,04,17.60
2013,08,15,09,05,17.60
2013,08,15,09,06,17.60
2013,08,15,09,07,17.50
2013,08,15,09,08,17.60
2013,08,15,09,09,17.60
2013,08,15,09,10,17.60
2013,08,15,09,11,17.60
2013,08,15,09,12,17.70
2013,08,15,09,13,17.70
2013,08,15,09,14,17.70
2013,08,15,09,15,17.70
2013,08,15,09,16,17.70
2013,08,15,09,17,17.70
2013,08,15,09,18,17.80
2013,08,15,09,19,17.90
2013,08,15,09,20,17.90
2013,08,15,09,21,17.90
2013,08,15,09,22,17.90
2013,08,15,09,23,17.90
2013,08,15,09,24,18.00
2013,08,15,09,25,18.00
2013,08,15,09,26,18.10
2013,08,15,09,27,18.10
2013,08,15,09,28,18.10
2013,08,15,09,29,18.20
2013,08,15,09,30,18.30
2013,08,15,09,31,18.30
2013,08,15,09,32,18.30
2013,08,15,09,33,18.40
2013,08,15,09,34,18.40
2013,08,15,09,35,18.50
2013,08,15,09,36,18.50
2013,08,15,09,37,18.60
2013,08,15,09,38,18.70
2013,08,15,09,39,18.70
2013,08,15,09,40,18.70
2013,08,15,09,41,18.80
2013,08,15,09,42,18.80
2013,08,15,09,43,18.90
2013,08,15,09,44,19.00
2013,08,15,09,45,19.10
2013,08,15,09,46,19.10
2013,08,15,09,47,19.10
2013,08,15,09,48,19.10
2013,08,15,09,49,19.20
2013,08,15,09,50,19.20
2013,08,15,09,51,19.20
2013,08,15,09,52,19.30
2013,08,15,09,53,19.30
2013,08,15,09,54,19.30
2013,08,15,09,55,19.30
2013,08,15,09,56,19.30
2013,08,15,09,57,19.30
2013,08,15,09,58,19.30
2013,08,15,09,59,19.30
2013,08,15,10,00,19.30
2013,08,15,10,01,19.40
2013,08,15,10,02,19.40
2013,08,15,10,03,19.40
2013,08,15,10,04,19.30
2013,08,15,10,05,19.30
2013,08,15,10,06,19.30
2013,08,15,10,07,19.30
2013,08,15,10,08,19.30
2013,08,15,10,09,19.40
2013,08,15,10,10,19.40
2013,08,15,10,11,19.40
2013,08,15,10,12,19.40
2013,08,15,10,13,19.40
2013,08,15,10,14,19.40
2013,08,15,10,15,19.40
2013,08,15,10,16,19.40
2013,08,15,10,17,19.40
2013,08,15,10,18,19.40
2013,08,15,10,19,19.50
2013,08,15,10,20,19.50
2013,08,15,10,21,19.50
2013,08,15,10,22,19.50
2013,08,15,10,23,19.60
2013,08,15,10,24,19.60
2013,08,15,10,25,19.60
2013,08,15,10,26,19.70
2013,08,15,10,27,19.70
2013,08,15,10,28,19.80
2013,08,15,10,29,19.80
2013,08,15,10,30,19.80
2013,08,15,10,31,19.90
2013,08,15,10,32,19.90
2013,08,15,10,33,20.00
2013,08,15,10,34,20.00
2013,08,15,10,35,20.10
2013,08,15,10,36,20.20
2013,08,15,10,37,20.20
2013,08,15,10,38,20.30
2013,08,15,10,39,20.40
2013,08,15,10,40,20.40
2013,08,15,10,41,20.50
2013,08,15,10,42,20.50
2013,08,15,10,43,20.60
2013,08,15,10,44,20.70
2013,08,15,10,45,20.70
2013,08,15,10,46,20.80
2013,08,15,10,47,20.80
2013,08,15,10,48,20.90
2013,08,15,10,49,20.90
2013,08,15,10,50,20.90
2013,08,15,10,51,20.90
2013,08,15,10,52,20.90
2013,08,15,10,53,20.90
2013,08,15,10,54,20.90
2013,08,15,10,55,20.90
2013,08,15,10,56,20.90
2013,08,15,10,57,20.80
2013,08,15,10,58,20.80
2013,08,15,10,59,20.70
2013,08,15,11,00,20.70
2013,08,15,11,01,20.70
2013,08,15,11,02,20.70
2013,08,15,11,03,20.70
2013,08,15,11,04,20.70
2013,08,15,11,05,20.70
2013,08,15,11,06,20.70
2013,08,15,11,07,20.70
2013,08,15,11,08,20.70
2013,08,15,11,09,20.80
2013,08,15,11,10,20.70
2013,08,15,11,11,20.70
2013,08,15,11,12,20.70
2013,08,15,11,13,20.70
2013,08,15,11,14,20.70
2013,08,15,11,15,20.70
2013,08,15,11,16,20.60
2013,08,15,11,17,20.60
2013,08,15,11,18,20.60
2013,08,15,11,19,20.60
2013,08,15,11,20,20.60
2013,08,15,11,21,20.60
2013,08,15,11,22,20.60
2013,08,15,11,23,20.60
2013,08,15,11,24,20.60
2013,08,15,11,25,20.60
2013,08,15,11,26,20.60
2013,08,15,11,27,20.60
2013,08,15,11,28,20.60
2013,08,15,11,29,20.60
2013,08,15,11,30,20.60
2013,08,15,11,31,20.70
2013,08,15,11,32,20.70
2013,08,15,11,33,20.70
2013,08,15,11,34,20.70
2013,08,15,11,35,20.80
2013,08,15,11,36,20.80
2013,08,15,11,37,20.80
2013,08,15,11,38,20.80
2013,08,15,11,39,20.80
2013,08,15,11,40,20.80
2013,08,15,11,41,20.80
2013,08,15,11,42,20.80
2013,08,15,11,43,20.80
2013,08,15,11,44,20.90
2013,08,15,11,45,20.90
2013,08,15,11,46,20.90
2013,08,15,11,47,21.00
2013,08,15,11,48,21.00
2013,08,15,11,49,21.00
2013,08,15,11,50,20.90
2013,08,15,11,51,20.90
2013,08,15,11,52,20.90
2013,08,15,11,53,20.90
2013,08,15,11,54,20.90
2013,08,15,11,55,20.90
2013,08,15,11,56,20.90
2013,08,15,11,57,20.90
2013,08,15,11,58,20.90
2013,08,15,11,59,20.90
2013,08,15,12,00,20.90
2013,08,15,12,01,20.90
2013,08,15,12,02,20.90
2013,08,15,12,03,20.90
2013,08,15,12,04,21.00
2013,08,15,12,05,21.00
2013,08,15,12,06,21.00
2013,08,15,12,07,21.10
2013,08,15,12,08,21.10
2013,08,15,12,09,21.10
2013,08,15,12,10,21.20
2013,08,15,12,11,21.20
2013,08,15,12,12,21.20
2013,08,15,12,13,21.30
2013,08,15,12,14,21.30
2013,08,15,12,15,21.30
2013,08,15,12,16,21.30
2013,08,15,12,17,21.30
2013,08,15,12,18,21.30
2013,08,15,12,19,21.30
2013,08,15,12,20,21.30
2013,08,15,12,21,21.30
2013,08,15,12,22,21.30
2013,08,15,12,23,21.30
2013,08,15,12,24,21.30
2013,08,15,12,25,21.30
2013,08,15,12,26,21.30
2013,08,15,12,27,21.30
2013,08,15,12,28,21.30
2013,08,15,12,29,21.30
2013,08,15,12,30,21.40
2013,08,15,12,31,21.50
2013,08,15,12,32,21.50
2013,08,15,12,33,21.60
2013,08,15,12,34,21.70
2013,08,15,12,35,21.70
2013,08,15,12,36,21.80
2013,08,15,12,37,21.80
2013,08,15,12,38,21.90
2013,08,15,12,39,21.90
2013,08,15,12,40,22.00
2013,08,15,12,41,22.10
2013,08,15,12,42,22.10
2013,08,15,12,43,22.10
2013,08,15,12,44,22.10
2013,08,15,12,45,22.10
2013,08,15,12,46,22.10
2013,08,15,12,47,22.10
2013,08,15,12,48,22.00
2013,08,15,12,49,21.90
2013,08,15,12,50,21.80
2013,08,15,12,51,21.80
2013,08,15,12,52,21.80
2013,08,15,12,53,21.70
2013,08,15,12,54,21.70
2013,08,15,12,55,21.70
2013,08,15,12,56,21.60
2013,08,15,12,57,21.70
2013,08,15,12,58,21.60
2013,08,15,12,59,21.70
2013,08,15,13,00,21.70
2013,08,15,13,01,21.70
2013,08,15,13,02,21.60
2013,08,15,13,03,21.60
2013,08,15,13,04,21.60
2013,08,15,13,05,21.60
2013,08,15,13,06,21.60
2013,08,15,13,07,21.60
2013,08,15,13,08,21.60
2013,08,15,13,09,21.50
2013,08,15,13,10,21.50
2013,08,15,13,11,21.50
2013,08,15,13,12,21.40
2013,08,15,13,13,21.40
2013,08,15,13,14,21.40
2013,08,15,13,15,21.40
2013,08,15,13,16,21.30
2013,08,15,13,17,21.30
2013,08,15,13,18,21.30
2013,08,15,13,19,21.30
2013,08,15,13,20,21.20
2013,08,15,13,21,21.20
2013,08,15,13,22,21.20
2013,08,15,13,23,21.20
2013,08,15,13,24,21.20
2013,08,15,13,25,21.20
2013,08,15,13,26,21.20
2013,08,15,13,27,21.20
2013,08,15,13,28,21.20
2013,08,15,13,29,21.10
2013,08,15,13,30,21.10
2013,08,15,13,31,21.10
2013,08,15,13,32,21.10
2013,08,15,13,33,21.00
2013,08,15,13,34,21.00
2013,08,15,13,35,20.90
2013,08,15,13,36,20.90
2013,08,15,13,37,20.90
2013,08,15,13,38,20.80
2013,08,15,13,39,20.80
2013,08,15,13,40,20.80
2013,08,15,13,41,20.80
2013,08,15,13,42,20.80
2013,08,15,13,43,20.80
2013,08,15,13,44,20.80
2013,08,15,13,45,20.80
2013,08,15,13,46,20.80
2013,08,15,13,47,20.80
2013,08,15,13,48,20.80
2013,08,15,13,49,20.80
2013,08,15,13,50,20.80
2013,08,15,13,51,20.80
2013,08,15,13,52,20.90
2013,08,15,13,53,20.90
2013,08,15,13,54,20.80
2013,08,15,13,55,20.80
2013,08,15,13,56,20.80
2013,08,15,13,57,20.80
2013,08,15,13,58,20.80
2013,08,15,13,59,20.90
2013,08,15,14,00,20.90
2013,08,15,14,01,20.90
2013,08,15,14,02,20.90
2013,08,15,14,03,20.90
2013,08,15,14,04,20.90
2013,08,15,14,05,20.90
2013,08,15,14,06,20.90
2013,08,15,14,07,20.90
2013,08,15,14,08,20.90
2013,08,15,14,09,20.90
2013,08,15,14,10,20.90
2013,08,15,14,11,20.90
2013,08,15,14,12,20.90
2013,08,15,14,13,20.90
2013,08,15,14,14,20.90
2013,08,15,14,15,20.90
2013,08,15,14,16,20.90
2013,08,15,14,17,20.90
2013,08,15,14,18,20.80
2013,08,15,14,19,20.90
2013,08,15,14,20,20.90
2013,08,15,14,21,20.90
2013,08,15,14,22,20.90
2013,08,15,14,23,20.90
2013,08,15,14,24,20.90
2013,08,15,14,25,20.90
2013,08,15,14,26,20.90
2013,08,15,14,27,20.90
2013,08,15,14,28,20.90
2013,08,15,14,29,20.90
2013,08,15,14,30,20.90
2013,08,15,14,31,20.90
2013,08,15,14,32,20.80
2013,08,15,14,33,20.80
2013,08,15,14,34,20.80
2013,08,15,14,35,20.80
2013,08,15,14,36,20.80
2013,08,15,14,37,20.80
2013,08,15,14,38,20.80
2013,08,15,14,39,20.80
2013,08,15,14,40,20.80
2013,08,15,14,41,20.80
2013,08,15,14,42,20.80
2013,08,15,14,43,20.80
2013,08,15,14,44,20.80
2013,08,15,14,45,20.80
2013,08,15,14,46,20.80
2013,08,15,14,47,20.80
2013,08,15,14,48,20.80
2013,08,15,14,49,20.80
2013,08,15,14,50,20.80
2013,08,15,14,51,20.80
2013,08,15,14,52,20.80
2013,08,15,14,53,20.90
2013,08,15,14,54,20.90
2013,08,15,14,55,20.90
2013,08,15,14,56,20.90
2013,08,15,14,57,20.90
2013,08,15,14,58,20.90
2013,08,15,14,59,21.00
2013,08,15,15,00,21.00
2013,08,15,15,01,21.00
2013,08,15,15,02,21.10
2013,08,15,15,03,21.10
2013,08,15,15,04,21.10
2013,08,15,15,05,21.10
2013,08,15,15,06,21.20
2013,08,15,15,07,21.20
2013,08,15,15,08,21.20
2013,08,15,15,09,21.20
2013,08,15,15,10,21.20
2013,08,15,15,11,21.30
2013,08,15,15,12,21.30
2013,08,15,15,13,21.30
2013,08,15,15,14,21.30
2013,08,15,15,15,21.30
2013,08,15,15,16,21.30
2013,08,15,15,17,21.30
2013,08,15,15,18,21.40
2013,08,15,15,19,21.40
2013,08,15,15,20,21.40
2013,08,15,15,21,21.40
2013,08,15,15,22,21.40
2013,08,15,15,23,21.40
2013,08,15,15,24,21.50
2013,08,15,15,25,21.50
2013,08,15,15,26,21.50
2013,08,15,15,27,21.50
2013,08,15,15,28,21.50
2013,08,15,15,29,21.50
2013,08,15,15,30,21.50
2013,08,15,15,31,21.50
2013,08,15,15,32,21.60
2013,08,15,15,33,21.60
2013,08,15,15,34,21.60
2013,08,15,15,35,21.60
2013,08,15,15,36,21.60
2013,08,15,15,37,21.60
2013,08,15,15,38,21.60
2013,08,15,15,39,21.60
2013,08,15,15,40,21.60
2013,08,15,15,41,21.60
2013,08,15,15,42,21.60
2013,08,15,15,43,21.60
2013,08,15,15,44,21.60
2013,08,15,15,45,21.60
2013,08,15,15,46,21.60
2013,08,15,15,47,21.60
2013,08,15,15,48,21.60
2013,08,15,15,49,21.60
2013,08,15,15,50,21.60
2013,08,15,15,51,21.60
2013,08,15,15,52,21.60
2013,08,15,15,53,21.50
2013,08,15,15,54,21.50
2013,08,15,15,55,21.60
2013,08,15,15,56,21.60
2013,08,15,15,57,21.50
2013,08,15,15,58,21.50
2013,08,15,15,59,21.50
2013,08,15,16,00,21.40
2013,08,15,16,01,21.40
2013,08,15,16,02,21.40
2013,08,15,16,03,21.40
2013,08,15,16,04,21.40
2013,08,15,16,05,21.40
2013,08,15,16,06,21.40
2013,08,15,16,07,21.50
2013,08,15,16,08,21.50
2013,08,15,16,09,21.50
2013,08,15,16,10,21.50
2013,08,15,16,11,21.50
2013,08,15,16,12,21.40
2013,08,15,16,13,21.50
2013,08,15,16,14,21.50
2013,08,15,16,15,21.50
2013,08,15,16,16,21.50
2013,08,15,16,17,21.50
2013,08,15,16,18,21.50
2013,08,15,16,19,21.50
2013,08,15,16,20,21.50
2013,08,15,16,21,21.50
2013,08,15,16,22,21.50
2013,08,15,16,23,21.50
2013,08,15,16,24,21.50
2013,08,15,16,25,21.60
2013,08,15,16,26,21.60
2013,08,15,16,27,21.60
2013,08,15,16,28,21.60
2013,08,15,16,29,21.70
2013,08,15,16,30,21.70
2013,08,15,16,31,21.80
2013,08,15,16,32,21.80
2013,08,15,16,33,21.80
2013,08,15,16,34,21.80
2013,08,15,16,35,21.80
2013,08,15,16,36,21.90
2013,08,15,16,37,21.90
2013,08,15,16,38,21.90
2013,08,15,16,39,21.90
2013,08,15,16,40,21.90
2013,08,15,16,41,21.90
2013,08,15,16,42,21.90
2013,08,15,16,43,21.90
2013,08,15,16,44,21.90
2013,08,15,16,45,21.90
2013,08,15,16,46,22.00
2013,08,15,16,47,22.00
2013,08,15,16,48,22.10
2013,08,15,16,49,22.10
2013,08,15,16,50,22.10
2013,08,15,16,51,22.10
2013,08,15,16,52,22.10
2013,08,15,16,53,22.10
2013,08,15,16,54,22.10
2013,08,15,16,55,22.20
2013,08,15,16,56,22.20
2013,08,15,16,57,22.20
2013,08,15,16,58,22.30
2013,08,15,16,59,22.30
2013,08,15,17,00,22.30
2013,08,15,17,01,22.30
2013,08,15,17,02,22.40
2013,08,15,17,03,22.40
2013,08,15,17,04,22.40
2013,08,15,17,05,22.40
2013,08,15,17,06,22.40
2013,08,15,17,07,22.40
2013,08,15,17,08,22.50
2013,08,15,17,09,22.50
2013,08,15,17,10,22.50
2013,08,15,17,11,22.60
2013,08,15,17,12,22.60
2013,08,15,17,13,22.60
2013,08,15,17,14,22.60
2013,08,15,17,15,22.60
2013,08,15,17,16,22.60
2013,08,15,17,17,22.60
2013,08,15,17,18,22.50
2013,08,15,17,19,22.50
2013,08,15,17,20,22.50
2013,08,15,17,21,22.40
2013,08,15,17,22,22.40